Regional Weather Roundup
Issued by NWS Grand Forks, ND

Home | Current Version | Previous Version | Text Only | Print | Product List | Glossary On
Versions: 1 2 3 4 5 6 7 8 9 10 11 12 13 14 15 16 17 18 19 20 21 22 23 24 25 26 27 28 29 30 31 32 33 34 35 36 37 38 39 40 41 42 43 44 45 46 47 48 49 50
000
ASUS43 KFGF 211431
RWRFGF
PRAIRIE TO PINES  WEATHER ROUNDUP
NATIONAL WEATHER SERVICE EASTERN NORTH DAKOTA/GRAND FORKS ND
900 AM CDT THU AUG 21 2014

 **SATELLITE DATA USED TO AUGMENT SKY COVER AT AUTOMATED STATIONS**
 *****  WEATHER ACROSS EASTERN NORTH DAKOTA  *****

CITY           SKY/WX    TMP DP  RH WIND       PRES   REMARKS
GRAND FORKS    CLOUDY    70  64  83 E8        29.76F
GRAND FRKS AFB CLOUDY    72  70  94 E7        29.77F
GRAND FRKS NWS   N/A     54 N/A N/A E12         N/A
DEVILS LAKE    CLOUDY    70  63  78 NE9       29.77R
FARGO          CLOUDY    73  67  81 SE5       29.75R
WAHPETON ARPT  CLOUDY    70  64  83 S7        29.76R
$$

 ***** WEATHER ACROSS CENTRAL AND WESTERN NORTH DAKOTA  *****

CITY           SKY/WX    TMP DP  RH WIND       PRES   REMARKS
BISMARCK       CLOUDY    67  64  90 NW9       29.83R
MINOT          CLOUDY    64  62  93 NW8       29.83S FOG
JAMESTOWN      CLOUDY    70  67  90 S5        29.76R
MINOT AFB      CLOUDY    64  64 100 NW7       29.83R FOG
GARRISON         N/A     67  65  93 NW7       29.83R
WILLISTON      SUNNY     61  59  93 CALM      29.90R
DICKINSON      SUNNY     62  60  93 NW8       29.89R
HETTINGER      MOSUNNY   64  59  83 NW7       29.92R
$$

 *****  OTHER AIRPORT OBSERVATIONS IN OUR AREA  *****

CITY           SKY/WX    TMP DP  RH WIND       PRES   REMARKS
WALHALLA         N/A     68  68 100 CALM      29.80R
GRAFTON AIRPOR   N/A     70  66  88 SE8       29.77S
VALLEY CITY AR CLOUDY    70  70 100 E6        29.76S
CANDO          CLOUDY    68  66  94 E6        29.79S
CAVALIER APRT  CLOUDY    68  66  94 SE7       29.76F
GWINNER        CLOUDY    72  72 100 S10       29.75S
SHEYENNE NWR     N/A     72  69  90 SE7       29.95S
ROLLA          RAIN      64  64 100 N10       29.83S
 ***** THE ABOVE OBSERVATIONS ARE NON NWS ARE NOT QUALITY
       CONTROLLED AND MAY MIS-REPORT RAIN FOR SNOW...
$$

  *****  WEATHER ACROSS NORTHERN MINNESOTA  *****

CITY           SKY/WX    TMP DP  RH WIND       PRES   REMARKS
FLAG ISLAND    CLOUDY    66  61  82 SE7       29.85S
WARROAD        CLOUDY    63  59  88 E10       29.85S
ROSEAU         CLOUDY    66  61  82 E8        29.82F
HALLOCK        PTSUNNY   70  64  83 E7        29.79S
THF RVR FALLS  CLOUDY    66  63  88 E10       29.81R
BAUDETTE       CLOUDY    62  59  90 SE7       29.86F
WASKISH        CLOUDY    63  61  94 E5        29.84F
CROOKSTON      CLOUDY    72  66  83 SE8       29.79R
$$
  *****  WEATHER ACROSS CENTRAL AND WEST MINNESOTA  *****

CITY           SKY/WX    TMP DP  RH WIND       PRES   REMARKS
FOSSTON        CLOUDY    66  64  94 SE12      29.82R
BEMIDJI        CLOUDY    64  61  90 E8        29.84R
PARK RAPIDS    CLOUDY    67  65  93 E8        29.82R
ELBOW LAKE     FAIR      73  68  84 SE8       29.76R
WADENA         CLOUDY    66  64  94 E3        29.80S
DETROIT LAKES  MOSUNNY   70  64  83 SE8       29.81R
MOORHEAD       PTSUNNY   72  72 100 CALM      29.77R
FERGUS FALLS   MOSUNNY   73  66  78 SE7       29.76R
MORRIS MN      SUNNY     72  70  94 SE10      29.74S
STAPLES        CLOUDY    66  64  94 CALM      29.80R
$$
  *****  WEATHER ELSEWHERE ACROSS MINNESOTA  *****

CITY           SKY/WX    TMP DP  RH WIND       PRES   REMARKS
DULUTH         DRZL/FOG  61  59  93 E13       29.90F VSB 1/2
INTRNTL FALLS  CLOUDY    62  59  90 E8        29.90S
ELY            PTSUNNY   64  57  77 E8        29.93F
CLOQUET        CLOUDY    61  59  94 E10G16    29.86F
WHEATON        MOSUNNY   70  66  88 S8        29.76S
BRAINERD       CLOUDY    67  65  93 VRB5      29.80R
HIBBING        CLOUDY    64  59  83 SE10      29.88F
ALEXANDRIA     PTSUNNY   70  66  87 SE14      29.78S
SAINT CLOUD    PTSUNNY   72  68  87 SE8       29.77S
MINNEAPOLIS    CLOUDY    72  70  93 VRB6      29.79S
$$

  *****  WEATHER ACROSS SOUTH DAKOTA  *****

CITY           SKY/WX    TMP DP  RH WIND       PRES   REMARKS
SIOUX FALLS    CLOUDY    77  70  79 SW7       29.77S
BROOKINGS      NOT AVBL
WATERTOWN      SUNNY     70  67  90 SW6       29.77S
HURON          SUNNY     72  66  81 N3        29.77S
SISSETON         N/A     71  69  93 S13       29.73S
ABERDEEN       SUNNY     67  65  93 SW7       29.77S
MITCHELL       CLOUDY    72  69  90 N9        29.78R
PIERRE         MOSUNNY   67  65  93 N7        29.83R
MOBRIDGE       PTSUNNY   67  65  93 NW6       29.82R
RAPID CITY     PTSUNNY   68  61  78 CALM      29.95R
$$

  *****  SOME WEATHER IN NEARBY STATES *****

CITY           SKY/WX    TMP DP  RH WIND       PRES   REMARKS
GLASGOW MT     PTSUNNY   63  60  90 CALM      29.95R
GREAT FALLS MT CLOUDY    54  53  97 NW10      30.07R
CHEYENNE WY    SUNNY     65  45  48 W12       30.13S
SCOTTSBLUFF NE SUNNY     64  52  64 NW10      30.00R
OMAHA NE       CLOUDY    76  69  79 NE5       29.81R
DES MOINES IA  CLOUDY    79  70  74 SW10      29.83S
DAVENPORT IA   CLOUDY    75  70  84 E9        29.93S
CHICAGO IL     LGT RAIN  72  68  87 CALM      29.96F FOG
EAU CLAIRE WI  LGT RAIN  68  67  96 SE10      29.83F
LA CROSSE WI   RAIN      71  68  90 SE12      29.90F FOG
$$

  *****  SOME NATIONAL WEATHER *****

CITY           SKY/WX    TMP DP  RH WIND       PRES   REMARKS
LA GUARDIA NY  PTSUNNY   76  62  62 CALM      30.06S
RALEIGH NC     MOSUNNY   82  71  69 NE3       30.08S
ATLANTA GA     MOSUNNY   78  68  71 NW7       30.16R
NEW ORLEANS LA PTSUNNY   86  76  71 CALM      30.13S HX  96
OKLAHOMA CITY  SUNNY     81  70  69 S17       29.98S
ALBUQUERQUE NM MOSUNNY   70  46  42 CALM      30.17R
SALT LAKE CITY CLOUDY    68  51  54 SE9       30.04R
LOS ANGELES CA MOCLDY    68  60  75 W5        29.94R
BOISE ID       SUNNY     59  43  55 SE6       29.98R
SEATTLE WA     CLOUDY    54  50  87 S5        30.06R
$$

*** WEATHER ACROSS MANITOBA...SASKATCHEWAN AND ONTARIO ***
                ***ONTARIO***

CITY           SKY/WX    TMP DP  RH WIND       PRES   REMARKS
GERALDTON      CLOUDY    63  61  94 SE3       30.01S FOG
THUNDER BAY    PTSUNNY   64  61  88 E7        29.97F
SIOUX LOOKOUT  PTSUNNY   66  61  82 S5        29.94F
TORONTO        PTSUNNY   72  66  83 W6        29.96S
BIG TROUT LK   SUNNY     68  59  73 SE12G17   29.96S
PICKLE LAKE    CLOUDY    63  59  88 S3        29.99R
DRYDEN         SUNNY     64  61  88 S7        29.93F
KENORA         MOSUNNY   64  61  88 SE8       29.90S
$$
                *** MANITOBA***

CITY           SKY/WX    TMP DP  RH WIND       PRES   REMARKS
BRANDON        LGT RAIN  64  63  94 E3        29.84R
DAUPHIN        CLOUDY    66  66 100 N7        29.82S
ISLAND LAKE    MOSUNNY   72  61  68 S7        29.84S
PILOT MOUND      N/A     66  64  94 NE7         N/A
THE PAS        CLOUDY    61  55  82 N15       29.87R
THOMPSON       SHOWER   N/A N/A N/A N16         N/A  FOG
WINNIPEG       LGT RAIN  68  64  88 SE6       29.80F
LYNN LAKE      CLOUDY    54  52  94 MISG      29.92R
CHURCHILL      CLOUDY    48  46  93 NW13      29.80R FOG
GILLAM         CLOUDY    68  63  83 SE3       29.78S
$$
                ***SASKATCHEWAN***

CITY           SKY/WX    TMP DP  RH WIND       PRES   REMARKS
ESTEVAN        CLOUDY   N/A N/A N/A NW5         N/A  FOG
KINDERSLEY     CLOUDY    55  52  88 N15       30.06R
LLOYDMINSTER   CLOUDY    52  50  93 N8        30.11R
PRINCE ALBERT  PTSUNNY   57  55  94 N7        30.00R
REGINA         PTSUNNY   59  55  88 N12       29.94R
YORKTON        CLOUDY    61  57  88 N15       29.89R
N. BATTLEFORD  CLOUDY    55  54  94 NW7       30.08R
LA RONGE       PTSUNNY   57  54  88 NW8       30.01R
SASKATOON      CLOUDY    59  55  88 N10       30.03R
SWIFT CURRENT  LGT RAIN  59  57  94 NE12      30.01R
$$
NOTE: THESE ARE AUTOMATED STATIONS WITH LIMITED QUALITY CONTROL
      "FAIR" INDICATES FEW OR NO CLOUDS BELOW 12,000 FEET WITH NO
      SIGNIFICANT WEATHER AND/OR OBSTRUCTIONS TO VISIBILITY.
      SKY/WX - SKY CONDITION AND SIGNIFICANT WEATHER.
      TMP - AIR TEMPERATURE.    DP   - DEWPOINT TEMPERATURE.
      RH  - RELATIVE HUMIDITY.  PRES - PRESSURE.
      HX  - HEAT INDEX.         WCI  - WIND CHILL INDEX.
$



USA.gov is the U.S. government's official web portal to all federal, state and local government web resources and services.